| time (UTC) | temp F | wind direction | speed MPH | gust MPH | rain 1hr in | rain 24hr in | rain mn in | humidity % | barometer mb |
| 20260906061843 | 84 | 138 | 0.0 | 1.0 | 0.00 | 0.00 | 0.00 | 72 | 1013.2 |
| 20260906055830 | 84 | 240 | 0.0 | 0.0 | 0.00 | 0.00 | 0.00 | 72 | 1013.5 |
| 20260906054847 | 84 | 113 | 0.0 | 1.0 | 0.00 | 0.00 | 0.00 | 72 | 1013.2 |
| 20260906053830 | 85 | 151 | 0.0 | 2.0 | 0.00 | 0.00 | 0.00 | 71 | 1013.2 |
| 20260906051823 | 86 | 91 | 0.0 | 1.0 | 0.00 | 0.00 | 0.00 | 70 | 1013.5 |
| 20260906050840 | 86 | 136 | 0.0 | 1.0 | 0.00 | 0.00 | 0.00 | 69 | 1013.5 |
| 20260906045831 | 86 | 165 | 0.0 | 2.0 | 0.00 | 0.00 | 0.00 | 68 | 1013.5 |
| 20260906044842 | 86 | 167 | 0.0 | 2.0 | 0.00 | 0.00 | 0.00 | 68 | 1013.2 |
| 20260906043831 | 87 | 155 | 1.0 | 4.0 | 0.00 | 0.00 | 0.00 | 67 | 1013.5 |
| 20260906042813 | 87 | 160 | 1.0 | 3.0 | 0.00 | 0.00 | 0.00 | 67 | 1012.8 |
| 20260906041806 | 87 | 158 | 0.0 | 3.0 | 0.00 | 0.00 | 0.00 | 66 | 1012.8 |
| 20260906040820 | 87 | 153 | 1.0 | 4.0 | 0.00 | 0.00 | 0.00 | 66 | 1013.2 |
| 20260906035818 | 88 | 153 | 1.0 | 3.0 | 0.00 | 0.00 | 0.00 | 66 | 1013.2 |
| 20260906034841 | 88 | 161 | 0.0 | 3.0 | 0.00 | 0.00 | 0.00 | 65 | 1012.8 |
| 20260906033827 | 88 | 138 | 0.0 | 1.0 | 0.00 | 0.00 | 0.00 | 65 | 1013.2 |
| 20260906032809 | 88 | 158 | 1.0 | 2.0 | 0.00 | 0.00 | 0.00 | 65 | 1013.2 |
| 20260906031847 | 89 | 151 | 1.0 | 3.0 | 0.00 | 0.00 | 0.00 | 64 | 1013.5 |
| 20260906030832 | 89 | 150 | 1.0 | 3.0 | 0.00 | 0.00 | 0.00 | 62 | 1013.2 |
| 20260906024804 | 90 | 142 | 0.0 | 2.0 | 0.00 | 0.00 | 0.00 | 60 | 1012.8 |
| 20260906023840 | 90 | 145 | 0.0 | 2.0 | 0.00 | 0.00 | 0.00 | 59 | 1012.8 |
| 20260906022833 | 90 | 145 | 1.0 | 2.0 | 0.00 | 0.00 | 0.00 | 58 | 1012.5 |
| 20260906020814 | 91 | 147 | 0.0 | 2.0 | 0.00 | 0.00 | 0.00 | 55 | 1012.5 |
| 20260906015846 | 91 | 144 | 2.0 | 8.0 | 0.00 | 0.00 | 0.00 | 54 | 1012.1 |
| 20260906014819 | 92 | 148 | 1.0 | 3.0 | 0.00 | 0.00 | 0.00 | 53 | 1011.8 |
| 20260906013820 | 93 | 154 | 1.0 | 4.0 | 0.00 | 0.00 | 0.00 | 50 | 1011.8 |
| 20260906010834 | 95 | 141 | 1.0 | 3.0 | 0.00 | 0.00 | 0.00 | 46 | 1011.1 |
| 20260906005822 | 95 | 168 | 0.0 | 2.0 | 0.00 | 0.00 | 0.00 | 44 | 1011.5 |
| 20260906004821 | 95 | 143 | 0.0 | 2.0 | 0.00 | 0.00 | 0.00 | 43 | 1011.1 |
| 20260906003848 | 96 | 134 | 0.0 | 1.0 | 0.00 | 0.00 | 0.00 | 43 | 1011.1 |
| 20260906002818 | 96 | 145 | 0.0 | 1.0 | 0.00 | 0.00 | 0.00 | 42 | 1011.1 |
| 20260906001843 | 97 | 127 | 0.0 | 1.0 | 0.00 | 0.00 | 0.00 | 42 | 1011.1 |
| 20260906000840 | 97 | 152 | 0.0 | 2.0 | 0.00 | 0.00 | 0.00 | 41 | 1011.1 |
| 20260905235817 | 97 | 163 | 0.0 | 2.0 | 0.00 | 0.00 | 0.01 | 41 | 1010.8 |
| 20260905234818 | 97 | 77 | 0.0 | 2.0 | 0.00 | 0.00 | 0.01 | 41 | 1011.1 |
| 20260905233812 | 97 | 130 | 0.0 | 1.0 | 0.00 | 0.00 | 0.01 | 42 | 1010.8 |
| 20260905232842 | 98 | 141 | 1.0 | 2.0 | 0.00 | 0.00 | 0.01 | 41 | 1010.8 |
| 20260905231847 | 99 | 181 | 0.0 | 2.0 | 0.00 | 0.00 | 0.01 | 41 | 1011.1 |
| 20260905230830 | 98 | 152 | 0.0 | 1.0 | 0.00 | 0.00 | 0.01 | 40 | 1010.8 |
| 20260905225837 | 99 | 129 | 1.0 | 4.0 | 0.00 | 0.00 | 0.01 | 40 | 1010.8 |
| 20260905223827 | 99 | 118 | 1.0 | 2.0 | 0.00 | 0.00 | 0.01 | 39 | 1011.1 |
| 20260905221840 | 99 | 125 | 1.0 | 2.0 | 0.00 | 0.00 | 0.01 | 38 | 1011.1 |
| 20260905220847 | 100 | 146 | 1.0 | 6.0 | 0.00 | 0.00 | 0.01 | 39 | 1011.1 |
| 20260905215836 | 100 | 157 | 1.0 | 4.0 | 0.00 | 0.00 | 0.01 | 39 | 1011.1 |
| 20260905213806 | 99 | 105 | 0.0 | 3.0 | 0.00 | 0.00 | 0.01 | 39 | 1011.1 |
| 20260905211816 | 99 | 97 | 1.0 | 3.0 | 0.00 | 0.00 | 0.01 | 39 | 1011.5 |
| 20260905210842 | 99 | 118 | 0.0 | 2.0 | 0.00 | 0.00 | 0.01 | 40 | 1011.8 |
| 20260905205842 | 98 | 174 | 1.0 | 3.0 | 0.00 | 0.00 | 0.01 | 41 | 1011.8 |
| 20260905204848 | 98 | 235 | 1.0 | 4.0 | 0.00 | 0.00 | 0.01 | 40 | 1011.8 |
| 20260905203847 | 98 | 172 | 1.0 | 3.0 | 0.00 | 0.00 | 0.01 | 40 | 1011.8 |
| 20260905202835 | 99 | 163 | 1.0 | 3.0 | 0.00 | 0.00 | 0.01 | 41 | 1012.1 |
| 20260905201826 | 99 | 183 | 1.0 | 4.0 | 0.00 | 0.00 | 0.01 | 41 | 1012.5 |
| 20260905194810 | 99 | 56 | 1.0 | 3.0 | 0.00 | 0.00 | 0.01 | 41 | 1012.8 |
| 20260905193841 | 97 | 173 | 1.0 | 4.0 | 0.00 | 0.00 | 0.01 | 42 | 1013.2 |
| 20260905192832 | 97 | 164 | 2.0 | 5.0 | 0.00 | 0.00 | 0.01 | 42 | 1012.8 |
| 20260905185815 | 96 | 160 | 1.0 | 3.0 | 0.00 | 0.00 | 0.01 | 44 | 1013.5 |
| 20260905184840 | 97 | 171 | 2.0 | 6.0 | 0.00 | 0.00 | 0.01 | 43 | 1013.8 |
| 20260905182839 | 97 | 243 | 1.0 | 5.0 | 0.00 | 0.00 | 0.01 | 45 | 1013.8 |
| 20260905181830 | 96 | 176 | 2.0 | 6.0 | 0.00 | 0.00 | 0.01 | 45 | 1014.2 |
| 20260905180831 | 96 | 105 | 1.0 | 5.0 | 0.00 | 0.00 | 0.01 | 45 | 1014.2 |
| 20260905175818 | 96 | 159 | 0.0 | 3.0 | 0.00 | 0.00 | 0.01 | 47 | 1014.5 |
| 20260905174843 | 95 | 256 | 1.0 | 3.0 | 0.00 | 0.00 | 0.01 | 49 | 1014.5 |
| 20260905172849 | 94 | 168 | 1.0 | 4.0 | 0.00 | 0.00 | 0.01 | 47 | 1014.8 |
| 20260905171821 | 94 | 210 | 1.0 | 6.0 | 0.00 | 0.00 | 0.01 | 48 | 1014.8 |
| 20260905170846 | 93 | 163 | 1.0 | 6.0 | 0.00 | 0.00 | 0.01 | 49 | 1015.2 |
| 20260905164835 | 94 | 125 | 1.0 | 3.0 | 0.00 | 0.00 | 0.01 | 48 | 1015.2 |
| 20260905163804 | 93 | 164 | 1.0 | 4.0 | 0.00 | 0.00 | 0.01 | 49 | 1015.2 |
| 20260905162819 | 93 | 151 | 1.0 | 2.0 | 0.00 | 0.00 | 0.01 | 53 | 1015.2 |
| 20260905161846 | 92 | 195 | 0.0 | 2.0 | 0.00 | 0.00 | 0.01 | 54 | 1015.2 |
| 20260905160816 | 92 | 256 | 1.0 | 2.0 | 0.00 | 0.00 | 0.01 | 52 | 1015.2 |
| 20260905155814 | 92 | 201 | 1.0 | 2.0 | 0.00 | 0.00 | 0.01 | 56 | 1015.2 |
| 20260905154806 | 92 | 164 | 1.0 | 6.0 | 0.00 | 0.00 | 0.01 | 57 | 1015.2 |
| 20260905153828 | 90 | 133 | 1.0 | 5.0 | 0.00 | 0.00 | 0.01 | 60 | 1015.2 |
| 20260905152836 | 88 | 270 | 1.0 | 2.0 | 0.00 | 0.00 | 0.01 | 63 | 1015.2 |
| 20260905151831 | 88 | 172 | 2.0 | 5.0 | 0.00 | 0.00 | 0.01 | 64 | 1015.2 |
| 20260905145828 | 86 | 181 | 1.0 | 3.0 | 0.00 | 0.00 | 0.01 | 70 | 1015.2 |
| 20260905144831 | 87 | 172 | 0.0 | 3.0 | 0.00 | 0.00 | 0.01 | 67 | 1014.8 |
| 20260905143846 | 86 | 208 | 0.0 | 4.0 | 0.00 | 0.00 | 0.01 | 70 | 1015.2 |
| 20260905142849 | 85 | 233 | 0.0 | 2.0 | 0.00 | 0.00 | 0.01 | 74 | 1014.8 |
| 20260905140840 | 83 | 270 | 1.0 | 3.0 | 0.00 | 0.00 | 0.01 | 78 | 1015.2 |
| 20260905135824 | 82 | 207 | 0.0 | 1.0 | 0.00 | 0.00 | 0.01 | 81 | 1015.2 |
| 20260905134831 | 81 | 208 | 0.0 | 2.0 | 0.00 | 0.00 | 0.01 | 82 | 1014.8 |
| 20260905133816 | 80 | 208 | 0.0 | 2.0 | 0.00 | 0.00 | 0.01 | 84 | 1015.2 |
| 20260905132847 | 79 | 187 | 0.0 | 2.0 | 0.00 | 0.00 | 0.01 | 85 | 1014.8 |
| 20260905131829 | 79 | 283 | 0.0 | 1.0 | 0.00 | 0.00 | 0.01 | 86 | 1014.8 |
| 20260905130808 | 78 | 85 | 0.0 | 1.0 | 0.00 | 0.00 | 0.01 | 88 | 1014.5 |
| 20260905125806 | 77 | 335 | 0.0 | 1.0 | 0.00 | 0.00 | 0.01 | 89 | 1014.5 |
| 20260905124840 | 77 | 124 | 0.0 | 0.0 | 0.00 | 0.00 | 0.01 | 89 | 1014.2 |
| 20260905123804 | 77 | 228 | 0.0 | 0.0 | 0.00 | 0.00 | 0.01 | 89 | 1014.2 |
| 20260905122828 | 77 | 91 | 0.0 | 0.0 | 0.00 | 0.00 | 0.01 | 89 | 1014.2 |
| 20260905121822 | 77 | 121 | 0.0 | 1.0 | 0.00 | 0.00 | 0.01 | 88 | 1014.2 |
| 20260905120836 | 77 | 240 | 0.0 | 0.0 | 0.00 | 0.00 | 0.01 | 87 | 1014.2 |
| 20260905115823 | 77 | 121 | 0.0 | 1.0 | 0.00 | 0.00 | 0.01 | 88 | 1014.2 |
| 20260905114824 | 77 | 98 | 0.0 | 1.0 | 0.00 | 0.00 | 0.01 | 88 | 1013.5 |
| 20260905113805 | 77 | 113 | 0.0 | 1.0 | 0.00 | 0.00 | 0.01 | 87 | 1013.8 |
| 20260905111816 | 77 | 235 | 0.0 | 1.0 | 0.00 | 0.00 | 0.01 | 88 | 1014.2 |
| 20260905104840 | 77 | 94 | 0.0 | 1.0 | 0.00 | 0.00 | 0.01 | 88 | 1014.2 |
| 20260905103840 | 77 | 134 | 0.0 | 0.0 | 0.00 | 0.00 | 0.01 | 87 | 1013.8 |
| 20260905102813 | 77 | 141 | 0.0 | 1.0 | 0.00 | 0.00 | 0.01 | 87 | 1014.2 |
| 20260905101818 | 77 | 124 | 0.0 | 1.0 | 0.00 | 0.00 | 0.01 | 86 | 1013.8 |
| 20260905100831 | 78 | 161 | 0.0 | 1.0 | 0.00 | 0.00 | 0.01 | 86 | 1013.8 |
| 20260905094809 | 78 | 120 | 0.0 | 0.0 | 0.00 | 0.00 | 0.01 | 84 | 1013.5 |
| 20260905093821 | 78 | 205 | 0.0 | 0.0 | 0.00 | 0.00 | 0.01 | 84 | 1013.8 |
| 20260905092832 | 79 | 45 | 0.0 | 0.0 | 0.00 | 0.00 | 0.01 | 84 | 1013.8 |
| 20260905090843 | 79 | 239 | 0.0 | 0.0 | 0.00 | 0.00 | 0.01 | 82 | 1013.8 |
| 20260905084808 | 80 | 130 | 0.0 | 0.0 | 0.00 | 0.00 | 0.01 | 81 | 1013.8 |
| 20260905083826 | 80 | 124 | 0.0 | 1.0 | 0.00 | 0.00 | 0.01 | 80 | 1013.5 |
| 20260905082848 | 80 | 117 | 0.0 | 1.0 | 0.00 | 0.00 | 0.01 | 79 | 1013.5 |
| 20260905081806 | 81 | 126 | 0.0 | 1.0 | 0.00 | 0.00 | 0.01 | 79 | 1013.8 |
| 20260905080834 | 81 | 156 | 0.0 | 2.0 | 0.00 | 0.00 | 0.01 | 78 | 1013.5 |
| 20260905075826 | 81 | 162 | 0.0 | 2.0 | 0.00 | 0.00 | 0.01 | 77 | 1013.5 |
| 20260905073847 | 82 | 154 | 0.0 | 2.0 | 0.00 | 0.00 | 0.01 | 76 | 1013.8 |
| 20260905072841 | 82 | 146 | 0.0 | 2.0 | 0.00 | 0.00 | 0.01 | 76 | 1013.5 |
| 20260905071836 | 82 | 147 | 0.0 | 1.0 | 0.00 | 0.00 | 0.01 | 75 | 1013.8 |
| 20260905065815 | 82 | 131 | 0.0 | 1.0 | 0.00 | 0.00 | 0.01 | 75 | 1014.2 |
| 20260905064806 | 83 | 163 | 0.0 | 2.0 | 0.00 | 0.00 | 0.01 | 74 | 1014.2 |
| 20260905063838 | 83 | 157 | 0.0 | 2.0 | 0.00 | 0.00 | 0.01 | 73 | 1014.2 |
| 20260905062809 | 84 | 156 | 1.0 | 3.0 | 0.00 | 0.00 | 0.01 | 73 | 1014.2 |